This is the latest recevied weather packets stored in our database for station/object N0KWA. If no packets are shown the sender has not sent any weather packets the latest 10 day(s).
| Time | Temp. | Humidity | Pressure | Rain* | Wind** | Luminosity | Snow |
|---|---|---|---|---|---|---|---|
| 1777569670 | 21.11° C | 99% | 1014.7 hPa | 0 mm | - | 32 W/m² | - |
| 1777569366 | 21.11° C | 99% | 1014.7 hPa | 0 mm | - | 29 W/m² | - |
| 1777569063 | 21.11° C | 99% | 1014.7 hPa | 0 mm | - | 34 W/m² | - |
| 1777568760 | 21.11° C | 99% | 1014.6 hPa | 0 mm | - | 13 W/m² | - |
| 1777568457 | 21.11° C | 99% | 1014.8 hPa | 0 mm | - | 16 W/m² | - |
| 1777568154 | 21.11° C | 99% | 1014.7 hPa | 0 mm | - | 16 W/m² | - |
| 1777567851 | 20.56° C | 99% | 1014.8 hPa | 0 mm | - | 14 W/m² | - |
| 1777567546 | 21.11° C | 99% | 1014.4 hPa | 0 mm | - | 14 W/m² | - |
| 1777567244 | 20.56° C | 99% | 1014.2 hPa | 0 mm | - | 17 W/m² | - |
| 1777566943 | 20.56° C | 99% | 1014.6 hPa | 0 mm | - | 16 W/m² | - |
| 1777566640 | 20.56° C | 99% | 1014.5 hPa | 0 mm | - | 22 W/m² | - |
| 1777566337 | 20.56° C | 99% | 1014.5 hPa | 0 mm | - | 26 W/m² | - |
| 1777566035 | 20.56° C | 99% | 1015.1 hPa | 0 mm | - | 10 W/m² | - |
| 1777565730 | 20.56° C | 99% | 1015.2 hPa | 0 mm | - | 6 W/m² | - |
| 1777565426 | 20.56° C | 99% | 1015.7 hPa | 0 mm | - | 2 W/m² | - |
| 1777565123 | 20.56° C | 99% | 1015.8 hPa | 0 mm | - | 4 W/m² | - |
| 1777564819 | 20.56° C | 99% | 1015.5 hPa | 0 mm | - | 6 W/m² | - |
| 1777564514 | 20.56° C | 99% | 1015.7 hPa | 0 mm | - | 6 W/m² | - |
| 1777564209 | 20.56° C | 99% | 1015.4 hPa | 0 mm | - | 12 W/m² | - |
| 1777563906 | 20.56° C | 99% | 1015.3 hPa | 0 mm | - | 13 W/m² | - |
| 1777563602 | 20.56° C | 99% | 1015.2 hPa | 0 mm | - | 21 W/m² | - |
| 1777563302 | 20.56° C | 99% | 1015 hPa | 0 mm | - | 19 W/m² | - |
| 1777562999 | 20.56° C | 99% | 1015 hPa | 0 mm | - | 29 W/m² | - |
| 1777562694 | 20° C | 99% | 1015.1 hPa | 0 mm | - | 29 W/m² | - |
| 1777562388 | 20° C | 99% | 1014.9 hPa | 0 mm | - | 14 W/m² | - |
* Rain latest hour (hover to see other rain measurements)
** Current wind speed in m/s (hover to see current wind gust speed)